Time,TemperatureF,DewpointF,PressureIn,WindDirection,WindDirectionDegrees,WindSpeedMPH,WindSpeedGustMPH,Humidity,HourlyPrecipIn,Conditions,Clouds,dailyrainin,SoftwareType,DateUTC
2013-08-21 00:22:00,83.0,52.0,29.98,NE,35,0.0,-999.0,34,2.20,,,-99.99,,2013-08-21 06:22:00,
2013-08-21 00:52:00,82.0,52.0,29.98,NE,38,0.0,-999.0,36,2.20,,,-99.99,,2013-08-21 06:52:00,
2013-08-21 01:21:00,81.0,55.0,29.98,NE,38,0.0,-999.0,41,2.20,,,-99.99,,2013-08-21 07:21:00,
2013-08-21 01:53:00,79.0,53.0,29.98,NE,38,0.0,-999.0,41,2.20,,,-99.99,,2013-08-21 07:53:00,
2013-08-21 02:22:00,79.0,55.0,29.98,NE,38,0.0,-999.0,43,2.20,,,-99.99,,2013-08-21 08:22:00,
2013-08-21 02:52:00,78.0,54.0,29.98,NE,38,0.0,-999.0,44,2.20,,,-99.99,,2013-08-21 08:52:00,
2013-08-21 03:22:00,77.0,56.0,29.98,NE,38,0.0,-999.0,48,2.20,,,-99.99,,2013-08-21 09:22:00,
2013-08-21 03:53:00,76.0,55.0,29.98,NE,38,0.0,-999.0,49,2.20,,,-99.99,,2013-08-21 09:53:00,
2013-08-21 04:23:00,76.0,54.0,29.98,NE,38,0.0,-999.0,47,2.20,,,-99.99,,2013-08-21 10:23:00,
2013-08-21 04:52:00,76.0,56.0,29.97,NE,38,0.0,-999.0,50,2.20,,,-99.99,,2013-08-21 10:52:00,
2013-08-21 05:22:00,75.0,57.0,29.98,NE,38,0.0,-999.0,53,2.20,,,-99.99,,2013-08-21 11:22:00,
2013-08-21 05:52:00,74.0,56.0,29.98,NE,38,0.0,-999.0,53,2.20,,,-99.99,,2013-08-21 11:52:00,
2013-08-21 06:22:00,73.0,53.0,29.99,NE,38,0.0,-999.0,49,2.20,,,-99.99,,2013-08-21 12:22:00,
2013-08-21 06:52:00,72.0,54.0,29.99,NE,38,0.0,-999.0,54,2.20,,,-99.99,,2013-08-21 12:52:00,
2013-08-21 07:21:00,72.0,53.0,30.00,NE,38,0.0,-999.0,52,2.20,,,-99.99,,2013-08-21 13:21:00,
2013-08-21 07:52:00,74.0,52.0,30.01,East,79,3.0,-999.0,47,2.20,,,-99.99,,2013-08-21 13:52:00,
2013-08-21 08:21:00,75.0,54.0,30.03,East,79,0.0,-999.0,48,2.20,,,-99.99,,2013-08-21 14:21:00,
2013-08-21 08:52:00,77.0,55.0,30.03,East,79,0.0,-999.0,47,2.20,,,-99.99,,2013-08-21 14:52:00,
2013-08-21 09:22:00,78.0,55.0,30.03,East,79,0.0,-999.0,45,2.20,,,-99.99,,2013-08-21 15:22:00,
2013-08-21 09:54:00,80.0,53.0,30.05,East,79,0.0,-999.0,39,2.20,,,-99.99,,2013-08-21 15:54:00,
2013-08-21 10:04:00,80.0,53.0,30.05,East,79,0.0,-999.0,39,2.20,,,-99.99,,2013-08-21 16:04:00,
2013-08-21 10:24:00,83.0,52.0,30.06,SSE,149,0.0,-999.0,35,2.20,,,-99.99,,2013-08-21 16:24:00,
2013-08-21 10:53:00,85.0,51.0,30.06,SSE,167,0.0,-999.0,31,2.20,,,-99.99,,2013-08-21 16:53:00,
2013-08-21 11:23:00,87.0,50.0,30.06,SSE,155,0.0,-999.0,28,2.20,,,-99.99,,2013-08-21 17:23:00,
2013-08-21 11:53:00,90.0,50.0,30.06,SSW,200,6.0,-999.0,26,2.20,,,-99.99,,2013-08-21 17:53:00,
2013-08-21 12:22:00,90.0,49.0,30.06,SSE,153,0.0,-999.0,25,2.20,,,-99.99,,2013-08-21 18:22:00,
2013-08-21 12:52:00,92.0,49.0,30.06,SE,146,5.0,-999.0,23,2.20,,,-99.99,,2013-08-21 18:52:00,
2013-08-21 13:22:00,93.0,48.0,30.05,SSE,152,3.0,-999.0,22,2.20,,,-99.99,,2013-08-21 19:22:00,
2013-08-21 13:52:00,93.0,47.0,30.04,SE,136,0.0,-999.0,21,2.20,,,-99.99,,2013-08-21 19:52:00,
2013-08-21 14:22:00,94.0,45.0,30.03,SE,127,0.0,-999.0,19,2.20,,,-99.99,,2013-08-21 20:22:00,
2013-08-21 14:52:00,96.0,44.0,30.03,SE,142,0.0,-999.0,17,2.20,,,-99.99,,2013-08-21 20:52:00,
2013-08-21 15:21:00,95.0,45.0,30.01,ENE,68,0.0,-999.0,18,2.20,,,-99.99,,2013-08-21 21:21:00,
2013-08-21 15:54:00,96.0,43.0,30.00,ESE,111,0.0,-999.0,16,2.20,,,-99.99,,2013-08-21 21:54:00,
2013-08-21 16:24:00,95.0,43.0,29.98,SSE,165,0.0,-999.0,17,2.20,,,-99.99,,2013-08-21 22:24:00,
2013-08-21 16:53:00,96.0,39.0,29.98,ENE,76,0.0,-999.0,14,2.20,,,-99.99,,2013-08-21 22:53:00,
2013-08-21 17:22:00,96.0,37.0,29.97,NE,51,0.0,-999.0,13,2.20,,,-99.99,,2013-08-21 23:22:00,
2013-08-21 17:53:00,94.0,41.0,29.96,ESE,113,0.0,-999.0,16,2.20,,,-99.99,,2013-08-21 23:53:00,
2013-08-21 18:21:00,93.0,43.0,29.95,ESE,107,0.0,-999.0,18,2.20,,,-99.99,,2013-08-22 00:21:00,
2013-08-21 18:52:00,92.0,41.0,29.95,SE,138,0.0,-999.0,17,2.20,,,-99.99,,2013-08-22 00:52:00,
2013-08-21 19:22:00,90.0,39.0,29.95,East,89,0.0,-999.0,17,2.20,,,-99.99,,2013-08-22 01:22:00,
2013-08-21 19:52:00,88.0,36.0,29.95,East,90,0.0,-999.0,16,2.20,,,-99.99,,2013-08-22 01:52:00,
2013-08-21 20:22:00,87.0,37.0,29.96,SE,146,0.0,-999.0,17,2.20,,,-99.99,,2013-08-22 02:22:00,
2013-08-21 21:22:00,84.0,34.0,29.98,East,100,0.0,-999.0,17,2.20,,,-99.99,,2013-08-22 03:22:00,
2013-08-21 21:54:00,83.0,35.0,30.00,SE,132,0.0,-999.0,18,2.20,,,-99.99,,2013-08-22 03:54:00,
2013-08-21 22:23:00,82.0,36.0,30.01,SE,132,0.0,-999.0,19,2.20,,,-99.99,,2013-08-22 04:23:00,
2013-08-21 22:54:00,82.0,33.0,30.02,South,188,0.0,-999.0,17,2.20,,,-99.99,,2013-08-22 04:54:00,
2013-08-21 23:22:00,81.0,33.0,30.03,SSE,160,0.0,-999.0,18,2.20,,,-99.99,,2013-08-22 05:22:00,
2013-08-21 23:52:00,81.0,36.0,30.04,SE,139,0.0,-999.0,20,2.20,,,-99.99,,2013-08-22 05:52:00,